Theta_e
297 296 296 297 297 298 298 297 297 298 300 301 301 301 304 309 313 312 308 306 308 308 307 309 310 312 313 309 305 306 307 307 307 307 309 309 308 309 310 311 311 310 310 310 313 319 320 320 324 326 325 324 322 322 325 326 329 331 327 323 324 328 325 317 316 318 320 321 320 321 323 327 332 331 326 327 326 325 328 333 335 330 326 331 337 332 329
296 296 296 297 297 298 297 297 297 298 300 301 301 302 304 308 312 312 308 307 308 308 308 309 311 315 316 312 309 309 307 307 308 308 309 310 310 311 311 311 312 311 311 313 314 318 322 321 321 324 326 324 322 322 325 328 331 332 331 326 321 319 322 323 320 318 320 320 320 323 326 329 333 329 324 326 327 325 323 327 334 330 323 329 336 331 328
296 296 296 297 298 298 297 297 298 299 300 301 301 302 303 307 312 313 310 309 308 310 314 314 314 316 318 318 318 316 312 310 309 309 310 309 310 313 312 310 311 312 313 316 316 318 322 322 320 325 327 324 321 321 323 327 332 332 331 331 330 325 323 328 329 323 323 325 326 327 329 329 329 326 322 325 327 326 322 324 334 332 323 326 333 330 327
296 296 296 297 298 298 297 297 298 299 299 300 301 302 304 308 311 312 313 312 310 312 315 314 316 317 317 318 319 316 316 314 309 309 310 308 311 313 311 310 313 315 316 318 318 318 320 322 323 326 327 324 320 321 322 326 330 331 329 332 336 331 323 324 330 329 327 331 330 327 327 330 329 324 322 323 323 323 326 330 333 331 326 328 330 327 326
296 296 296 297 297 297 297 297 298 299 299 300 301 301 304 308 312 313 314 314 312 314 315 314 317 318 316 317 317 314 316 315 310 311 310 308 311 312 310 311 313 312 315 318 319 320 322 323 323 324 325 324 324 323 323 325 328 329 328 329 334 334 326 321 322 323 323 323 322 320 322 324 323 321 320 320 320 324 331 332 326 324 328 330 327 325 325
296 296 296 297 297 297 297 297 298 299 299 300 301 302 306 309 312 313 313 313 313 314 314 315 316 315 315 316 316 314 316 315 312 313 312 311 312 313 312 313 313 312 316 320 320 320 324 323 321 323 324 324 327 326 323 323 325 329 329 326 329 333 327 321 320 319 319 319 319 318 318 318 318 318 319 319 320 325 328 325 321 324 331 332 327 324 322
296 296 296 297 297 297 297 297 298 299 300 300 301 303 308 310 311 313 313 312 313 315 314 314 316 315 315 317 316 315 316 315 312 312 314 315 313 314 315 314 314 315 319 325 323 319 324 323 318 321 323 323 328 327 323 322 324 330 333 327 326 330 325 320 320 320 318 317 318 317 317 317 317 317 317 318 319 320 321 321 320 324 327 327 323 319 316
296 296 297 297 297 297 297 298 298 299 300 301 301 303 307 309 311 312 312 312 314 315 314 314 316 316 316 317 317 316 315 314 312 311 313 314 312 313 315 313 313 313 315 322 320 317 324 325 319 322 324 322 327 327 321 321 324 329 332 328 325 327 324 321 323 323 319 317 316 316 317 317 317 316 316 316 317 318 318 319 319 320 321 319 317 316 313
296 296 297 297 297 297 297 297 298 299 300 301 303 304 306 308 310 311 313 314 315 315 314 315 316 316 314 314 314 315 314 312 312 310 309 311 313 314 316 314 314 314 313 316 315 314 320 320 318 325 327 321 323 323 319 322 328 330 329 328 329 330 324 321 324 326 321 317 316 317 318 318 318 317 316 316 317 317 317 316 317 318 318 317 317 317 313
296 296 297 297 297 297 297 298 298 299 299 301 303 305 305 306 308 310 312 314 315 315 314 313 314 317 319 317 313 313 313 313 316 315 310 310 312 313 316 317 317 316 315 314 312 315 318 314 312 319 321 318 319 319 318 322 329 331 328 326 328 329 325 322 324 326 322 318 319 320 322 325 323 317 315 316 316 315 315 314 315 315 315 317 318 315 311
296 296 296 297 297 297 297 298 298 298 299 300 301 302 303 304 306 308 311 314 316 314 310 310 315 318 320 318 314 313 314 315 319 319 312 311 312 311 314 320 319 317 314 311 310 314 315 313 311 312 315 316 316 316 317 319 322 326 328 328 325 323 323 325 326 325 322 319 320 321 323 325 320 314 313 315 314 313 314 313 312 311 313 313 312 310 308
296 296 296 297 297 297 297 297 298 298 299 300 300 301 302 302 304 307 309 315 318 314 311 312 315 314 315 317 315 314 315 313 315 317 314 311 312 311 313 320 322 316 312 311 313 313 312 312 313 313 313 315 315 315 317 319 318 319 323 325 322 321 323 325 324 323 321 319 320 324 325 320 315 312 312 312 311 311 311 311 310 309 309 309 308 308 306
296 295 296 296 297 297 297 297 298 298 299 300 300 301 301 300 303 306 308 313 318 316 314 315 314 312 314 316 314 312 313 313 315 318 315 312 311 310 312 318 318 314 311 314 319 319 314 314 316 315 315 319 320 318 317 318 318 318 320 321 321 321 323 322 320 320 320 321 321 323 320 314 312 313 312 312 312 312 312 312 311 309 308 308 308 306 304
296 296 296 297 297 297 297 297 298 298 299 300 299 300 301 300 302 305 307 311 316 316 315 314 312 312 313 315 316 314 312 315 318 314 311 312 311 309 310 311 309 311 315 318 322 322 317 317 319 316 316 322 324 320 318 318 318 318 320 321 319 320 321 322 321 319 318 319 318 317 316 314 313 313 312 312 312 312 313 313 311 310 309 307 305 304 303
296 296 296 297 297 297 297 297 298 298 299 300 300 300 300 300 301 303 305 308 314 316 313 310 308 309 310 312 317 315 312 315 316 312 312 315 312 307 308 308 304 307 315 319 321 323 319 318 319 317 317 320 320 318 318 320 319 317 317 318 319 320 322 323 322 319 316 316 315 315 316 317 314 312 311 310 311 311 312 312 311 310 308 306 305 304 303
295 296 296 296 297 297 297 298 298 299 299 300 300 300 300 300 300 301 303 306 309 312 309 304 305 309 309 309 312 313 314 315 315 315 316 316 311 306 308 309 306 309 318 322 322 323 321 318 319 320 319 318 317 316 317 322 325 321 317 316 317 318 320 322 321 318 317 317 317 317 317 315 313 311 310 310 310 312 312 313 313 310 308 307 305 304 304
295 295 296 296 297 297 297 298 298 299 299 300 300 300 300 301 301 301 303 305 307 314 313 307 308 313 312 310 311 311 313 315 315 316 315 312 309 307 308 312 311 311 318 323 322 322 321 318 320 321 317 314 315 316 317 322 326 323 321 322 321 319 320 322 321 318 317 318 317 315 314 312 310 309 309 309 310 311 314 317 315 310 309 309 307 305 305
295 296 296 296 297 297 297 298 298 299 299 299 300 301 301 302 301 301 304 305 307 314 312 305 308 313 311 311 311 308 310 314 315 316 316 313 312 309 309 312 312 309 313 320 323 324 320 315 317 321 317 313 315 316 317 320 321 317 317 320 320 319 318 318 319 317 316 315 314 312 312 310 309 309 308 309 310 313 316 317 313 308 307 308 306 306 306
295 296 296 296 297 297 297 297 297 298 299 299 300 301 302 303 302 301 305 306 305 306 304 302 306 309 306 307 311 308 308 314 315 319 321 316 311 310 308 310 311 311 315 323 323 320 318 313 314 320 320 316 315 315 316 318 318 314 314 315 316 317 316 315 316 315 313 312 312 312 312 309 307 308 307 308 312 315 314 311 307 305 305 304 303 304 303
295 295 296 296 297 296 297 297 297 298 298 299 300 301 302 303 303 302 305 308 307 306 305 304 304 305 305 308 312 311 312 315 316 322 326 318 312 313 311 311 315 315 317 322 319 314 317 317 313 316 320 317 314 314 314 313 311 311 314 315 313 313 314 314 314 313 313 313 313 314 314 308 305 308 309 309 312 312 309 306 305 304 303 302 301 301 300
296 295 295 296 296 297 297 296 296 297 298 298 300 301 301 303 305 304 304 305 305 305 305 304 301 303 304 306 309 313 316 318 317 319 322 315 311 314 316 319 322 319 316 320 317 311 315 319 314 312 315 315 313 314 314 313 310 308 310 312 310 310 312 313 311 310 313 315 313 312 310 306 305 308 310 309 309 307 305 304 304 303 302 301 300 300 299
296 295 295 296 296 296 296 296 296 297 297 298 300 300 302 304 305 305 305 305 305 305 304 303 302 303 304 304 304 307 310 313 312 312 316 315 311 313 319 323 323 318 315 319 318 313 313 317 315 313 314 314 314 312 312 314 314 309 308 311 310 309 309 310 308 307 309 311 309 306 306 306 306 307 307 306 306 305 304 304 303 302 301 300 300 299 299
295 295 295 295 295 295 296 295 296 297 297 298 299 300 302 304 305 306 305 304 305 304 301 301 303 303 304 306 307 306 306 308 308 308 312 317 315 312 316 318 316 314 315 320 322 321 319 317 315 316 316 313 313 313 311 312 312 309 308 309 308 307 306 307 307 306 306 306 305 304 306 306 306 305 305 305 304 304 303 303 302 301 301 300 299 299 298
295 295 295 295 294 295 296 295 296 297 298 299 300 300 303 305 305 306 305 304 309 309 303 305 310 307 303 305 307 307 308 309 310 309 310 314 316 314 313 314 314 315 316 314 313 316 319 313 311 314 313 310 312 315 314 311 309 307 308 309 308 308 307 307 307 306 306 306 305 304 305 305 305 304 304 303 303 303 302 302 301 300 300 299 299 298 298
295 295 295 294 294 295 296 296 297 298 299 300 302 303 305 306 306 307 304 302 312 319 312 308 310 307 302 305 306 306 308 309 309 310 309 310 314 316 313 311 311 314 316 311 308 313 318 313 311 314 312 308 311 313 310 308 308 308 309 310 309 307 306 306 306 305 306 306 305 304 304 304 304 304 303 302 302 302 301 300 300 300 299 299 299 298 298
294 294 294 294 295 295 296 296 298 300 301 304 305 306 307 306 306 308 305 302 309 316 312 308 310 306 303 305 305 305 309 309 308 310 310 308 311 313 310 309 308 308 310 310 310 314 317 312 311 314 311 308 312 312 307 307 309 309 308 308 308 307 307 305 305 305 305 305 304 304 304 303 303 303 302 301 301 300 300 300 299 300 300 300 300 299 298
294 294 294 294 295 295 296 297 299 301 303 305 307 305 306 306 306 307 308 307 308 311 310 309 309 307 304 304 305 306 309 309 308 308 308 308 309 307 306 307 309 307 309 312 312 312 313 312 310 310 309 308 310 309 307 306 308 309 308 306 306 306 305 304 304 305 305 304 304 304 305 304 303 302 301 301 300 300 300 300 300 300 301 301 301 300 298
294 294 294 294 295 295 296 298 300 302 303 305 305 303 303 304 305 306 307 307 310 314 314 310 307 306 305 304 305 308 310 309 307 306 304 304 306 305 304 306 310 310 312 314 312 310 311 310 308 308 308 307 307 308 308 307 308 309 308 305 306 306 305 304 305 306 305 304 303 303 304 303 302 301 301 300 300 300 300 301 301 301 300 299 300 301 300
294 294 293 294 295 295 297 299 301 302 304 305 304 304 304 302 303 306 307 305 307 315 319 315 309 307 307 305 304 305 306 306 305 304 303 302 302 302 302 305 308 310 310 311 311 309 309 308 308 307 305 305 306 309 309 308 308 307 305 304 305 306 305 304 305 304 303 303 303 302 302 302 302 302 301 300 299 300 300 300 300 299 298 298 298 299 299
293 294 293 294 296 296 297 300 301 302 305 305 305 310 312 307 302 305 308 307 305 311 318 316 310 307 306 304 303 303 303 304 304 302 301 302 302 301 301 304 307 309 310 310 309 308 308 309 311 308 304 305 310 310 307 306 306 304 302 303 304 304 304 304 303 303 303 302 301 301 302 302 301 300 300 299 299 299 300 300 299 298 298 298 298 297 298
293 294 294 294 296 296 298 300 300 301 304 305 306 312 315 310 303 304 308 307 304 310 317 316 310 310 309 305 303 303 302 302 303 302 300 302 303 301 301 302 304 305 309 311 310 309 308 308 310 308 305 307 312 310 306 306 306 304 302 303 303 303 303 303 303 302 302 301 301 301 301 301 301 301 301 300 299 299 298 298 299 299 298 299 299 299 299
293 294 294 295 296 297 299 300 300 301 303 304 306 308 308 306 305 306 308 306 303 309 317 315 308 308 310 307 304 305 303 301 304 306 304 303 305 303 302 303 304 305 309 313 312 309 307 307 307 306 305 306 310 310 306 305 305 304 302 303 303 303 303 303 302 302 301 301 301 302 301 302 302 302 301 299 298 299 298 298 299 300 299 299 299 299 299
294 294 294 295 296 298 300 300 301 303 304 305 304 303 302 304 305 306 308 307 303 304 311 313 308 305 306 307 305 304 304 305 308 310 307 303 304 306 306 307 309 308 307 308 308 306 305 306 307 306 305 306 308 308 306 304 303 303 302 303 303 303 302 302 302 302 302 301 301 301 302 303 302 300 299 298 298 299 299 299 299 299 298 298 298 298 298
294 294 294 295 297 299 300 301 304 306 307 305 303 301 301 303 305 306 306 305 303 303 306 311 311 307 307 309 307 304 305 309 310 310 308 302 300 305 311 312 312 309 304 304 307 306 304 306 308 307 307 308 307 305 304 302 302 302 302 303 303 302 302 302 302 302 302 301 300 299 299 299 299 299 299 299 299 298 298 299 299 299 299 299 297 297 297
294 294 294 296 298 299 301 304 306 307 307 305 302 301 301 301 303 307 306 302 304 307 308 310 312 311 308 308 307 303 305 309 307 306 308 304 300 304 313 314 309 306 304 306 309 308 304 305 307 306 305 306 306 304 303 302 301 302 302 302 302 302 302 302 302 302 302 302 301 299 297 297 300 301 302 301 300 297 297 298 298 298 301 303 298 295 296
294 294 295 297 299 301 304 306 307 307 307 305 301 300 302 301 303 306 305 303 306 308 307 308 312 313 310 308 306 303 304 306 305 305 310 311 304 306 315 315 306 303 307 310 311 307 303 304 307 306 305 305 305 303 302 302 302 302 302 302 301 302 303 302 302 301 301 302 303 301 300 300 302 302 302 302 300 297 297 298 298 298 302 303 299 295 296
294 296 297 299 301 304 306 306 304 304 303 303 302 301 302 303 304 305 306 306 305 306 309 312 311 310 310 308 307 305 304 305 306 306 310 310 305 307 315 315 307 308 313 312 307 305 304 306 309 308 305 304 304 302 302 302 301 301 302 301 301 302 302 301 300 300 300 301 302 301 301 301 302 301 301 302 301 299 299 301 299 298 300 301 297 295 295
299 301 302 303 306 309 309 305 303 303 302 302 303 304 303 304 307 308 309 309 305 305 312 314 308 307 310 311 307 304 304 306 309 308 306 306 305 306 310 310 306 308 311 306 301 304 308 309 309 306 302 300 301 302 301 302 302 301 302 302 301 301 301 299 299 300 301 301 301 301 301 301 301 300 301 301 300 299 299 299 298 297 297 298 296 296 295
304 305 305 305 306 307 306 303 301 302 303 303 305 306 305 305 308 307 307 309 307 306 309 310 308 310 315 313 306 304 304 308 312 310 306 306 306 306 308 307 307 309 308 303 302 307 308 306 307 306 302 299 301 301 301 301 302 301 301 300 298 298 298 297 297 299 301 301 300 300 300 300 301 301 301 301 300 298 297 297 297 297 297 297 297 296 295
303 303 305 307 305 302 302 302 302 304 306 306 305 306 306 306 306 306 306 307 307 306 306 307 307 309 312 311 308 305 304 306 311 311 306 304 307 308 307 305 306 308 306 302 304 308 308 305 305 305 303 301 301 301 301 302 302 301 299 297 296 296 296 296 297 298 299 299 298 298 298 298 299 299 299 299 300 299 297 297 297 298 297 297 297 296 296
300 302 304 305 303 300 301 303 303 303 306 307 306 306 306 304 305 306 307 307 306 306 307 308 307 306 308 313 315 310 303 301 308 313 309 304 307 311 306 302 305 308 304 301 304 310 309 306 304 305 306 306 304 302 302 302 302 302 299 296 296 297 297 296 297 297 298 297 296 297 298 298 298 298 297 297 297 298 298 297 297 298 298 298 297 297 297
300 301 302 301 301 301 302 303 302 301 303 304 304 304 305 304 303 305 307 307 307 307 308 309 309 308 307 309 311 309 303 300 305 314 313 304 305 310 308 302 304 307 303 301 305 310 308 305 303 305 308 307 303 301 302 302 302 303 300 296 296 297 297 297 297 297 298 298 297 297 298 298 297 298 298 298 298 298 298 298 299 298 298 298 298 298 297
301 302 301 301 302 301 301 301 301 301 303 305 304 303 303 303 303 303 305 306 307 307 305 305 305 305 304 304 306 306 302 300 304 313 312 304 303 308 308 304 304 304 302 303 306 307 307 306 305 306 306 304 301 301 302 301 301 302 299 295 296 298 298 298 298 297 297 298 298 297 298 298 298 298 298 299 299 299 299 299 299 299 299 299 299 298 298
302 302 304 305 303 300 300 301 301 300 301 303 303 303 303 303 303 305 307 307 306 306 306 306 308 306 304 306 307 304 301 301 305 308 306 303 304 306 305 304 303 302 302 304 305 305 305 306 306 305 304 302 300 300 300 300 301 302 299 295 295 297 298 297 297 296 296 297 297 297 298 298 298 298 299 299 300 299 298 299 299 299 299 299 299 299 298
302 303 307 306 301 299 300 301 301 301 301 302 305 308 309 308 308 311 314 312 309 306 306 309 311 308 304 305 306 305 306 309 309 305 303 305 305 304 303 303 303 303 303 304 304 304 304 305 304 302 302 301 300 299 300 300 299 299 299 298 295 295 295 295 295 295 295 296 296 297 298 297 298 298 299 299 300 300 299 299 299 299 299 299 299 299 298
303 303 304 303 301 300 300 299 300 302 303 304 308 311 312 311 311 311 311 311 310 307 305 308 311 308 305 304 304 305 310 314 309 304 306 308 305 301 301 302 303 303 303 302 303 307 309 307 303 301 300 301 300 299 299 299 297 296 298 299 296 294 294 295 295 295 296 296 297 297 297 297 297 298 298 299 300 299 299 299 299 299 300 299 299 299 298
302 301 301 302 302 300 298 301 305 308 308 308 311 312 311 309 307 306 304 305 307 307 305 306 308 306 304 304 303 303 308 312 306 301 304 307 303 301 303 303 303 303 303 301 304 312 314 308 302 300 300 300 299 299 299 299 298 297 298 299 296 293 294 295 295 295 295 296 296 297 296 297 297 298 298 298 299 299 299 299 299 299 300 300 299 299 299
305 301 300 302 302 300 301 305 307 306 305 307 308 308 305 303 303 303 303 304 306 307 305 307 308 306 304 308 309 306 305 307 305 302 303 304 302 301 303 304 303 304 305 306 311 318 315 306 300 299 300 299 299 299 299 299 298 298 299 298 296 294 294 294 294 295 295 296 296 296 296 297 298 298 298 298 298 299 299 299 299 299 299 299 299 299 299
305 302 299 300 301 303 306 306 302 301 306 306 304 303 304 303 305 308 307 304 304 305 306 309 313 310 304 307 310 308 304 304 305 303 303 305 304 303 303 304 302 303 305 311 319 322 313 303 298 299 299 299 298 299 299 298 297 296 297 297 295 294 294 295 295 296 296 296 296 296 297 297 298 298 297 298 298 298 299 299 299 299 299 299 299 299 299
300 300 301 301 301 303 306 303 300 303 309 307 302 302 305 305 305 307 305 303 305 308 307 309 313 312 306 305 307 305 303 305 305 303 304 306 305 302 302 304 306 307 310 314 318 316 306 298 297 299 299 298 299 300 299 298 295 294 294 295 295 295 295 296 296 296 297 297 297 297 297 297 298 298 298 298 299 299 299 299 299 299 299 299 299 299 299
299 299 303 304 305 305 305 301 300 303 306 306 305 307 307 307 308 306 302 302 308 311 309 308 309 309 307 306 305 302 302 304 303 302 303 306 304 302 303 308 312 316 316 314 309 304 299 297 298 299 298 298 299 299 298 296 295 294 294 295 295 295 296 297 297 297 297 298 298 298 298 298 298 299 299 299 299 299 299 299 299 299 299 299 299 299 299
300 301 302 303 305 306 302 300 302 303 304 306 309 308 307 308 310 305 300 303 310 310 308 309 311 308 305 305 305 303 302 304 303 302 304 305 304 305 311 317 318 317 316 311 304 299 297 298 299 298 298 299 298 297 295 295 294 295 295 295 295 296 296 297 297 297 297 297 297 298 298 298 298 299 299 299 299 298 298 299 299 299 299 299 299 299 299
Wind_Speed
11 13 12 12 13 14 13 13 14 15 15 16 14 8 4 1 1 1 15 24 12 2 1 0 1 1 3 4 4 3 4 4 4 5 5 2 2 3 2 2 2 2 2 3 3 3 4 4 3 3 3 3 2 6 7 3 2 4 2 2 1 2 3 3 0 3 3 4 4 5 7 9 8 4 3 2 0 3 5 5 3 4 3 2 3 2 1
12 12 11 12 12 12 12 12 13 13 13 15 13 6 2 2 2 1 14 20 5 3 2 1 1 2 3 4 4 3 3 4 4 5 4 3 1 2 3 2 2 2 3 4 4 3 4 5 4 3 3 1 4 7 7 3 2 2 2 4 2 1 1 3 3 1 3 4 3 5 6 5 4 3 4 3 2 4 5 2 4 4 3 3 5 2 2
11 11 10 11 12 11 10 11 12 13 12 13 10 4 2 2 2 2 7 12 5 1 3 2 1 2 3 3 4 3 2 4 6 5 3 3 0 2 1 2 1 3 4 5 6 6 5 3 2 2 3 2 4 7 9 5 3 3 3 4 4 3 2 3 5 5 3 3 2 1 1 2 3 3 5 6 4 4 4 3 4 3 2 3 4 4 4
10 10 9 11 11 9 9 10 11 12 11 12 10 5 2 1 0 1 1 4 3 2 1 2 2 2 1 2 3 2 2 3 4 5 1 2 1 3 1 2 3 5 6 6 7 9 7 4 3 3 3 2 2 6 7 5 4 6 8 7 4 5 3 3 5 5 5 5 2 1 2 3 3 4 7 7 4 3 4 4 4 5 4 2 0 6 9
9 9 9 11 11 8 8 10 11 11 10 10 9 4 2 1 1 2 2 1 2 2 2 1 2 2 1 1 3 3 4 3 1 0 1 1 2 3 3 4 4 3 4 6 4 6 6 6 5 4 3 1 2 6 6 6 8 7 6 6 3 6 4 4 7 7 3 3 5 6 7 7 5 4 7 7 6 6 6 4 2 6 7 1 3 9 11
10 9 9 10 10 7 7 10 10 10 11 9 5 2 2 2 0 1 2 1 2 3 2 3 4 4 2 1 3 3 2 2 1 2 2 2 3 3 3 7 5 2 3 5 3 4 5 6 4 2 3 2 2 6 5 6 9 7 4 5 3 7 3 3 6 9 8 7 7 9 12 10 9 9 8 9 10 10 8 4 1 2 5 6 9 10 8
9 8 8 10 9 7 8 9 9 10 11 7 3 2 2 1 0 2 1 0 2 4 3 4 5 5 4 2 3 3 1 3 0 2 2 4 5 4 3 6 6 5 5 6 3 2 3 3 2 1 2 2 2 3 3 4 7 6 5 4 3 5 3 2 6 9 9 8 6 7 11 11 10 12 11 10 11 12 11 7 4 5 5 8 13 12 8
7 7 8 9 8 7 9 8 9 11 10 5 3 3 2 0 1 1 1 2 2 2 1 3 3 3 4 3 4 2 2 4 2 2 3 3 3 4 6 5 6 8 8 8 4 2 6 5 2 2 3 2 2 2 1 2 4 5 4 3 3 4 2 1 3 6 6 7 6 7 11 12 12 11 10 9 9 10 9 7 6 8 8 9 13 11 6
6 7 8 9 7 7 9 8 9 11 10 5 4 3 3 3 4 2 1 1 1 1 1 3 4 0 2 4 3 1 1 2 3 4 3 3 4 4 8 7 6 7 9 9 5 3 5 7 5 6 5 3 2 2 1 2 1 4 3 2 3 4 4 1 3 5 2 2 4 7 9 12 12 10 9 9 7 6 5 4 4 4 7 12 11 6 4
7 7 8 8 7 7 8 8 9 9 9 5 3 2 5 6 5 3 1 1 2 1 1 2 3 2 3 3 1 1 1 1 4 4 5 5 4 4 7 8 6 6 7 7 1 5 5 5 4 5 5 6 5 4 3 4 4 2 2 2 2 4 6 3 2 4 1 3 1 3 5 7 6 5 6 5 3 5 5 5 6 4 4 8 6 4 5
7 7 7 7 7 7 8 8 8 8 8 6 3 3 6 5 3 3 1 0 2 1 2 1 2 2 3 3 1 3 3 3 4 4 2 4 4 3 5 8 7 4 3 2 2 4 5 4 3 6 8 10 9 7 8 9 6 2 4 3 2 4 7 4 2 4 4 4 2 4 3 2 1 3 4 2 3 7 8 6 6 6 4 5 6 6 7
8 7 6 6 6 7 8 8 8 7 6 7 5 4 5 5 3 2 1 1 3 1 1 2 4 3 3 5 3 3 5 6 4 4 5 3 2 2 4 7 7 1 2 1 1 1 3 4 6 9 10 10 11 12 13 12 9 5 4 5 5 5 5 4 2 3 4 1 3 2 2 2 0 2 4 6 8 11 13 10 8 8 8 9 9 8 7
8 6 5 5 6 7 8 8 8 7 6 7 7 6 6 6 3 1 0 0 2 1 0 3 3 1 3 5 5 3 4 5 4 4 6 4 3 3 3 4 5 3 2 4 6 6 5 5 5 6 6 6 8 11 12 11 9 8 6 4 6 6 4 3 3 2 3 2 2 1 2 1 2 2 3 5 5 6 8 9 8 7 6 7 8 8 8
8 6 5 6 6 7 8 8 8 7 6 6 8 9 9 6 2 1 1 1 2 4 1 2 3 2 6 6 5 4 4 5 4 4 4 3 4 3 1 1 2 2 3 6 7 5 4 3 4 4 4 5 5 5 5 6 7 8 8 5 4 6 5 3 3 1 2 3 2 2 2 1 1 1 0 1 1 1 1 4 4 3 3 6 8 9 8
8 6 5 6 7 7 8 8 8 8 6 6 9 11 11 7 3 2 2 1 2 3 1 2 3 1 4 4 4 5 4 4 3 4 3 3 2 1 1 2 2 3 5 5 4 3 3 3 3 2 1 1 1 1 2 3 4 5 6 6 5 5 4 4 3 1 2 4 3 2 2 2 2 2 1 1 1 3 2 3 2 2 3 6 9 9 9
8 7 6 6 7 8 9 9 9 9 7 7 9 11 11 8 6 4 2 1 1 2 2 2 3 3 4 4 3 5 4 2 2 3 4 5 3 1 1 3 2 3 6 5 3 3 4 3 4 3 2 3 3 1 1 2 3 5 5 7 9 7 4 4 5 2 2 4 3 2 2 2 2 2 2 3 3 2 1 2 2 1 2 5 8 9 9
8 7 6 7 8 8 10 10 10 9 7 6 8 10 10 8 7 7 3 1 1 2 4 2 2 3 3 3 3 3 3 2 3 3 1 1 2 2 3 4 5 4 6 4 3 4 4 3 3 3 1 2 2 2 1 2 2 4 6 6 7 6 4 4 4 3 3 3 2 1 1 1 1 0 2 3 3 1 1 1 1 2 2 4 7 8 7
9 7 6 7 8 9 11 10 10 10 7 6 8 11 11 10 9 10 4 1 1 2 6 3 4 4 2 4 3 2 2 2 2 3 1 1 1 2 2 2 3 3 3 4 2 3 4 2 2 4 2 1 1 3 1 2 2 1 3 3 4 4 3 3 3 4 3 3 3 1 1 0 0 2 3 3 2 1 2 1 2 3 4 4 5 5 4
8 7 7 8 9 10 11 10 10 10 8 7 9 11 11 10 10 13 7 1 2 1 7 4 3 4 2 3 3 1 2 3 3 4 3 1 1 1 2 2 1 1 2 4 3 2 3 2 1 3 3 1 1 2 2 1 1 1 1 2 2 2 2 2 2 3 3 3 3 2 0 0 1 2 3 2 1 2 2 1 3 6 6 6 6 6 5
8 8 8 8 9 10 10 10 9 9 8 8 10 13 12 10 12 18 13 3 1 1 6 5 3 2 2 4 4 3 2 3 2 3 4 2 1 2 3 1 1 1 3 3 2 1 2 2 0 1 3 1 1 3 2 1 1 1 1 1 1 1 2 2 1 2 3 3 2 2 2 0 1 2 2 1 0 2 3 4 6 7 8 7 7 6 7
9 9 9 9 10 10 9 9 9 8 8 7 9 13 12 7 10 18 20 10 1 2 3 4 3 1 1 2 4 6 6 4 4 4 4 2 0 3 4 4 2 1 1 2 2 1 2 3 1 1 2 1 1 2 3 2 2 2 1 3 1 0 1 2 1 1 2 3 2 2 1 1 1 1 1 2 3 4 6 6 6 6 6 6 6 6 7
9 10 10 9 10 9 8 9 8 6 8 8 9 11 10 5 3 8 19 17 7 3 3 4 3 2 3 3 2 3 3 2 4 4 5 3 1 2 4 3 2 2 2 3 3 1 1 2 2 2 3 2 1 2 3 3 1 2 3 3 2 1 2 3 2 2 3 3 2 2 2 3 3 4 5 6 7 6 7 8 7 6 5 5 6 7 7
10 10 11 10 9 8 8 8 7 7 8 9 10 10 11 8 5 2 12 14 8 7 5 4 3 1 4 5 4 4 4 3 1 2 4 5 2 1 2 3 2 1 1 3 4 3 3 3 2 2 2 2 3 3 3 3 2 0 2 3 1 2 3 4 4 5 5 6 5 4 4 6 8 8 7 8 8 6 7 8 7 5 5 5 6 7 7
11 11 11 10 9 8 8 8 8 8 8 10 11 11 12 9 4 4 11 7 1 1 3 6 3 0 2 3 4 4 3 3 3 2 3 5 4 1 1 2 2 2 1 1 3 4 3 2 2 3 3 1 2 3 3 2 2 2 3 2 1 1 2 4 4 4 3 4 4 5 6 8 9 9 8 9 8 7 6 7 7 6 7 7 7 7 7
14 12 10 9 8 8 8 8 8 8 9 12 12 8 7 5 4 5 8 2 2 4 2 3 3 2 1 0 3 5 4 4 5 4 2 4 6 5 4 3 3 4 3 2 3 5 4 2 2 3 2 1 2 2 2 2 3 3 3 2 1 1 3 4 5 3 3 5 7 7 8 8 8 8 7 7 8 8 7 7 8 8 8 9 9 8 7
16 13 9 7 7 8 8 9 9 9 10 11 7 2 1 5 6 2 4 4 4 4 3 0 4 6 6 4 4 5 4 7 10 11 11 9 9 11 10 5 6 7 5 3 4 5 4 3 3 3 2 2 3 3 2 2 3 3 3 1 2 2 3 3 5 6 6 7 8 9 9 9 8 8 8 7 8 10 10 9 9 9 9 9 9 9 8
16 11 8 7 7 7 8 8 8 10 10 6 3 5 8 11 10 5 3 4 4 2 3 1 4 5 6 7 9 7 8 10 12 14 15 14 15 17 15 9 6 6 5 5 4 3 4 4 4 3 2 2 3 3 2 2 3 4 3 1 1 3 4 5 7 7 4 4 6 6 6 6 6 7 9 8 8 10 10 9 8 8 8 8 7 8 8
14 10 7 7 7 7 8 8 8 10 8 6 9 11 12 14 14 10 5 5 4 3 3 2 2 3 4 7 10 10 11 12 16 20 20 19 20 20 15 8 5 5 5 4 4 4 4 4 3 1 1 2 3 3 2 2 3 3 2 3 1 3 5 5 5 5 5 7 6 5 5 6 7 8 9 8 7 9 10 9 8 7 8 9 8 7 7
12 9 6 6 6 6 7 7 9 9 6 6 6 7 9 10 14 12 7 6 5 4 4 2 2 2 1 4 8 12 15 18 23 24 22 22 21 18 12 8 5 4 4 5 5 4 4 3 2 1 2 2 3 2 2 3 3 2 3 3 2 4 4 4 6 8 8 7 6 6 8 9 8 8 8 7 9 10 8 7 8 8 9 11 10 8 8
10 7 6 6 5 5 6 7 8 9 7 3 2 2 5 5 10 12 7 5 5 4 4 4 2 2 1 2 5 10 16 22 25 24 20 17 13 10 10 9 5 4 5 5 4 3 2 2 2 2 3 2 4 3 2 2 3 2 4 3 6 7 6 5 6 8 8 7 6 7 9 9 7 8 7 8 11 12 8 7 9 10 11 12 12 10 11
9 6 5 5 4 4 5 6 7 9 9 3 1 2 2 1 6 9 6 5 7 6 4 4 2 2 3 2 3 6 10 16 18 14 12 11 9 10 13 11 6 4 5 4 2 2 2 2 3 3 4 4 5 4 2 3 4 2 3 4 6 8 7 6 7 8 8 8 9 9 9 7 7 7 6 6 11 12 9 8 11 12 12 12 12 11 11
7 5 5 4 3 3 3 5 6 8 9 6 4 3 3 1 5 7 5 6 8 6 5 4 3 2 2 2 4 6 7 10 10 6 6 6 7 8 11 9 4 3 5 5 3 3 2 1 3 3 3 4 4 4 3 4 4 3 3 5 7 7 7 8 8 8 8 8 9 11 9 6 4 5 6 7 11 13 11 10 10 11 11 10 9 8 8
6 5 4 2 2 2 2 4 5 6 7 6 6 5 5 6 8 7 6 7 6 5 4 3 3 1 0 1 3 6 7 6 5 5 5 4 3 4 5 5 3 4 6 4 2 1 1 2 4 3 3 4 4 4 4 4 3 4 6 8 8 7 7 8 8 8 7 6 6 8 9 7 6 7 11 12 12 13 13 11 10 9 9 8 7 6 6
5 5 3 1 1 0 2 3 5 5 5 4 4 5 6 7 7 7 7 6 5 4 4 3 3 1 2 1 2 5 5 3 2 3 3 4 4 3 3 4 4 4 5 3 2 2 2 2 3 3 2 3 3 4 3 2 3 5 7 8 7 7 8 8 7 7 7 5 4 6 8 10 9 10 11 10 9 11 13 12 11 9 6 5 5 5 5
5 3 1 2 2 2 4 4 4 4 4 3 3 3 4 5 7 9 9 6 4 3 2 2 4 3 2 3 1 3 4 4 2 1 2 2 4 3 3 3 4 3 2 2 2 3 3 1 2 2 2 3 3 3 3 5 6 7 8 7 7 7 8 7 7 6 5 6 6 6 9 11 10 8 7 6 6 10 11 9 9 8 5 3 3 3 5
3 1 1 3 3 4 4 4 4 3 2 2 1 2 3 4 7 10 11 9 6 4 1 1 3 3 3 3 1 2 3 3 1 2 2 2 3 3 3 4 4 2 2 3 4 3 2 1 2 2 2 2 2 2 4 7 9 9 9 8 7 7 7 7 7 7 6 7 7 7 7 9 8 6 6 5 6 8 8 6 5 6 4 3 3 3 5
1 1 3 5 4 3 2 3 3 3 3 1 1 2 3 4 5 7 8 7 6 4 3 3 2 2 3 4 1 2 2 2 1 3 3 2 1 2 3 4 3 1 2 4 3 1 2 2 3 3 2 1 3 4 6 8 9 9 9 9 7 7 7 7 7 8 8 8 8 7 6 7 7 5 5 5 4 5 6 6 7 7 6 5 6 7 8
3 4 4 4 2 2 2 2 3 3 2 0 1 2 3 4 3 3 3 3 3 4 3 4 2 1 2 3 1 1 1 2 1 3 2 1 1 2 2 2 2 1 2 2 1 1 2 3 3 4 2 1 2 4 5 6 7 7 8 8 7 6 7 7 8 10 9 7 7 7 6 6 5 5 6 7 6 7 8 10 12 11 10 8 9 11 10
5 4 3 3 2 1 0 2 3 2 1 1 2 2 2 3 3 1 2 2 2 2 2 3 3 2 3 4 1 2 1 3 3 3 1 0 1 1 1 1 1 2 3 1 2 2 4 3 2 3 3 0 2 4 4 5 6 6 7 8 9 10 10 9 11 13 12 9 10 11 10 9 9 7 5 5 7 7 9 10 12 13 10 9 11 13 13
5 3 2 2 1 1 0 1 2 2 2 2 3 2 2 2 1 1 0 2 2 0 0 2 2 2 3 5 3 1 2 2 3 3 2 1 1 2 2 2 1 2 3 1 2 2 4 1 2 3 3 4 4 4 4 5 6 6 7 9 13 15 15 13 14 17 16 14 15 17 17 16 15 12 9 8 7 6 7 9 12 13 11 11 14 16 16
5 3 1 1 3 4 3 3 4 3 3 2 2 2 2 0 1 0 2 3 1 2 1 2 3 1 1 3 4 1 1 1 2 4 3 1 1 3 3 1 0 3 2 2 1 3 4 2 2 1 4 5 4 4 5 6 6 6 7 11 14 15 15 14 14 16 17 14 13 15 17 17 17 16 15 14 12 11 11 12 13 13 13 15 17 17 16
4 2 1 2 3 3 4 4 4 3 2 2 2 1 0 1 1 0 1 1 1 1 0 2 3 3 2 2 3 2 1 0 1 3 3 1 0 3 3 0 2 3 1 3 0 4 4 2 1 3 5 5 4 5 6 6 6 6 8 11 14 14 14 13 12 14 17 18 16 15 16 17 18 18 18 17 16 14 13 14 14 14 14 16 16 15 15
3 2 1 1 2 3 3 3 2 1 1 2 2 1 1 1 1 0 0 1 0 1 1 1 2 2 1 1 2 1 1 1 1 3 3 1 0 2 3 2 2 1 2 1 3 4 2 2 3 5 5 4 5 6 6 7 7 7 7 11 14 16 16 14 12 11 14 19 21 21 20 19 18 18 19 19 18 15 12 12 15 15 14 14 14 15 16
2 3 3 2 2 2 2 1 0 1 1 0 1 2 1 1 1 1 1 1 1 1 1 2 3 3 1 1 2 2 1 1 2 2 1 0 1 3 3 1 1 1 1 1 3 1 2 3 4 5 4 4 5 6 6 6 6 6 6 7 11 15 16 14 12 11 11 14 19 21 19 18 17 16 16 17 16 14 11 12 15 15 14 14 14 15 17
2 2 3 3 2 1 1 0 1 0 1 2 2 3 3 3 3 3 3 2 2 3 2 3 5 5 2 1 1 1 0 1 2 2 1 1 3 2 1 2 1 1 2 2 1 0 2 3 3 4 5 6 6 6 7 6 7 8 7 6 8 12 14 13 13 12 12 14 18 19 17 16 17 16 15 15 16 15 14 14 15 15 15 15 15 16 18
1 0 3 3 0 1 1 1 1 1 1 2 3 4 5 5 4 4 3 1 3 5 4 4 5 5 3 1 1 1 1 2 3 1 1 3 3 0 1 1 2 2 2 1 1 2 4 5 5 6 7 7 7 7 6 6 7 8 9 8 7 11 14 15 14 14 16 18 20 19 17 18 18 18 17 17 17 17 16 16 15 16 16 16 16 16 17
1 1 3 3 0 1 1 1 2 2 3 3 4 4 5 4 3 2 2 2 4 6 4 3 4 4 2 1 2 1 2 2 2 1 1 3 2 0 1 2 1 1 2 2 4 5 4 4 5 7 7 7 7 7 7 6 7 8 9 8 8 10 14 16 15 15 17 20 20 19 18 19 19 19 19 18 17 16 16 15 14 15 15 15 16 16 16
1 1 2 2 1 1 2 2 2 1 2 2 3 3 3 3 2 1 1 1 4 6 5 4 4 3 2 2 2 2 1 2 2 0 0 2 2 1 2 2 1 2 2 4 5 5 4 5 7 8 8 8 8 7 7 7 7 8 9 9 9 11 14 15 15 16 18 20 20 19 19 20 20 20 20 18 17 16 15 13 12 13 14 15 15 14 14
2 1 1 1 1 2 3 2 1 1 4 3 1 2 3 3 2 3 2 2 4 5 4 4 4 3 1 1 2 2 1 1 2 1 2 2 2 1 1 1 2 3 3 4 4 4 4 5 7 8 8 8 7 7 7 7 7 9 10 12 13 15 17 17 17 18 19 20 21 21 20 20 21 20 19 18 17 16 15 14 13 12 13 14 13 12 11
2 1 1 1 1 1 2 1 2 2 5 2 1 3 3 4 3 3 2 3 4 3 3 3 3 3 1 1 3 2 1 1 2 3 1 0 2 2 2 2 3 5 4 4 4 4 4 6 8 9 9 9 8 8 7 7 8 10 13 16 18 19 19 20 20 19 19 20 22 22 21 21 21 20 19 19 18 17 16 14 13 13 13 13 12 10 11
1 1 1 2 3 3 2 2 2 3 4 3 4 5 4 4 4 4 4 5 4 4 4 2 1 3 3 2 1 1 1 0 2 3 1 2 2 3 2 3 5 5 4 4 4 4 5 7 8 9 9 8 8 7 8 10 12 14 15 17 18 19 19 21 21 20 19 20 21 22 21 21 21 22 21 21 19 17 15 13 12 12 13 13 12 11 11
1 0 2 2 3 4 3 2 2 4 4 4 4 4 4 4 5 5 6 6 5 4 3 2 2 4 3 1 1 1 1 1 2 1 2 2 2 3 5 5 5 4 4 4 3 4 5 7 9 10 11 10 9 10 12 14 15 16 17 19 20 20 19 19 19 19 20 21 21 21 21 20 20 20 20 20 18 15 14 14 14 13 13 12 10 9 10
Wind_Direction
316 312 310 307 307 314 321 322 322 329 340 346 346 335 302 263 16 163 165 162 155 68 69 65 335 256 251 275 276 264 272 286 305 312 318 345 11 20 24 35 60 23 26 71 70 77 75 52 76 123 89 55 311 310 333 345 68 87 120 191 128 101 98 102 233 315 317 299 331 26 60 78 78 46 24 43 82 135 138 168 171 120 125 120 80 84 227
314 311 308 306 309 316 322 321 322 332 345 348 343 335 314 295 326 106 168 177 184 19 155 186 331 268 293 298 278 267 252 252 263 283 306 334 16 46 12 357 41 26 28 63 59 70 81 47 36 91 94 19 312 333 351 9 90 86 161 171 136 131 121 100 108 47 348 321 332 6 13 39 69 30 348 348 22 104 127 121 82 109 175 146 119 142 197
314 310 306 309 313 320 324 319 323 332 342 346 339 320 308 305 319 37 175 191 212 309 174 149 122 274 309 297 281 291 267 242 233 239 291 324 75 100 20 325 37 31 34 54 38 41 82 87 23 58 65 1 325 346 351 2 76 87 111 125 113 107 103 106 131 151 177 194 207 228 332 25 47 21 356 359 24 80 125 121 88 125 184 114 118 145 135
315 308 306 311 315 325 324 315 322 331 335 340 334 309 281 305 225 66 156 192 211 237 196 119 145 239 272 282 282 254 244 269 228 207 253 332 24 70 20 340 50 38 43 60 35 27 52 77 82 81 61 17 333 340 344 0 42 60 66 68 84 99 75 68 112 135 180 187 195 202 131 78 37 357 359 9 10 31 98 119 142 164 143 49 187 153 136
315 308 305 307 316 327 320 314 324 330 330 332 327 298 251 272 202 151 154 184 215 252 305 100 184 232 210 281 293 254 251 287 280 246 48 348 7 55 38 21 43 44 59 81 46 14 33 47 61 74 63 84 322 337 353 9 5 17 42 30 53 101 61 23 72 77 75 103 78 62 77 78 66 36 12 19 36 53 76 96 155 147 125 72 220 152 136
314 308 302 305 317 328 317 317 325 327 329 328 313 273 233 242 268 189 202 193 186 219 251 198 207 248 257 276 297 281 303 39 18 318 360 11 12 65 38 5 17 68 97 105 76 18 34 34 45 68 40 46 354 347 360 9 4 15 35 15 63 105 64 9 76 68 44 47 64 78 87 82 67 59 42 33 47 63 73 63 359 123 137 166 161 138 122
315 307 303 309 322 326 315 320 324 325 327 318 277 259 258 222 306 278 275 302 185 197 204 184 199 228 218 230 276 254 3 48 29 286 30 21 5 64 71 0 9 45 79 105 92 48 86 57 27 94 57 44 56 24 359 347 4 33 50 26 65 97 64 23 88 76 42 23 29 75 92 88 64 52 47 45 54 65 68 64 56 65 89 127 127 113 94
314 308 309 315 324 320 314 318 323 331 335 315 242 235 240 173 345 310 8 348 244 206 187 161 172 220 204 214 262 251 64 50 45 6 61 73 8 48 88 68 48 58 70 84 85 164 155 129 119 151 111 75 102 116 198 294 358 25 46 28 30 80 124 225 73 73 33 12 35 70 85 87 69 43 31 36 49 56 54 55 64 67 77 98 104 102 94
317 312 316 321 325 318 317 319 323 336 345 323 248 237 271 291 299 313 45 330 277 210 209 144 132 204 213 208 253 318 33 71 88 38 22 103 107 106 120 104 63 54 60 67 81 180 148 119 138 169 145 111 126 139 146 154 64 22 34 27 24 79 119 103 64 82 16 341 77 80 76 78 66 35 15 18 33 54 53 40 41 76 119 118 110 109 119
325 317 317 323 326 321 319 322 325 338 348 330 267 302 332 319 311 334 87 269 298 190 175 105 118 211 213 199 247 14 260 238 105 71 10 30 71 116 134 115 72 51 55 56 97 208 174 139 154 166 130 90 92 97 86 101 115 110 89 46 34 108 126 135 106 99 140 237 198 41 44 65 56 6 348 355 26 75 70 41 24 26 115 127 123 127 127
332 319 311 314 324 325 323 324 325 334 347 343 316 319 338 338 321 335 57 15 295 242 150 132 154 194 183 166 125 57 69 51 75 110 77 13 27 59 105 102 87 71 77 90 231 213 177 151 100 93 90 78 74 71 64 59 55 104 131 89 51 106 122 137 131 107 151 220 316 20 47 90 16 322 332 355 83 82 75 58 37 35 63 99 100 104 114
335 320 306 308 318 323 324 327 327 328 335 335 320 291 319 342 333 313 64 85 280 304 73 216 209 204 192 159 117 64 82 74 69 122 124 81 37 47 73 90 93 137 237 153 71 91 101 70 55 64 69 70 67 59 56 48 27 21 96 110 109 105 103 109 90 97 134 151 20 53 176 202 100 48 66 92 98 91 84 70 50 53 74 94 98 102 110
342 327 312 312 317 324 326 327 329 326 320 319 311 290 305 337 347 287 25 83 266 281 334 271 256 181 138 119 92 65 80 71 49 89 106 98 76 51 39 100 124 190 200 77 57 64 79 56 42 49 36 33 49 48 44 40 30 23 30 70 115 120 109 98 76 76 118 94 49 139 173 134 94 84 83 95 94 89 80 61 42 46 70 96 106 107 110
346 334 322 318 321 327 328 327 327 325 317 308 302 299 308 322 318 285 330 55 262 255 215 332 340 76 104 99 89 67 37 26 24 46 73 95 101 81 38 114 127 151 117 78 49 53 86 71 44 38 7 4 31 34 20 24 38 40 27 22 87 116 119 104 70 54 121 110 84 102 114 138 196 215 187 97 58 281 61 67 48 35 69 110 120 119 123
343 331 322 322 325 327 326 328 329 326 323 312 301 301 305 292 241 265 327 328 288 296 42 28 318 149 95 73 91 89 46 19 35 32 5 14 72 105 28 23 37 75 87 77 58 59 83 97 93 78 19 45 96 352 344 1 10 28 40 45 62 81 112 129 114 76 108 109 108 121 144 203 190 174 246 334 323 263 240 105 90 26 86 129 133 133 140
342 330 321 324 326 327 327 328 328 327 326 319 307 301 297 275 230 218 276 298 359 344 332 304 254 171 95 46 62 102 96 88 75 35 356 356 4 350 6 9 16 76 76 65 71 76 68 91 125 133 169 182 174 189 26 30 337 334 10 50 60 56 61 93 98 98 121 120 125 146 180 206 153 155 272 339 352 282 265 95 120 207 141 147 146 143 153
343 332 326 328 326 328 332 330 329 332 329 320 311 300 289 274 230 201 212 261 191 274 286 277 97 88 80 55 41 73 99 115 105 90 72 295 307 334 356 359 8 53 77 69 44 58 77 96 101 97 152 207 144 132 146 97 56 332 342 22 45 43 31 54 93 121 122 107 107 115 133 175 129 164 296 333 342 302 188 136 188 174 134 147 152 154 164
344 334 328 330 327 330 334 331 330 333 328 324 315 293 280 276 240 201 192 283 223 284 293 258 115 85 123 142 128 128 117 88 95 99 78 290 295 337 344 1 18 33 71 87 74 67 83 89 98 113 134 289 85 122 152 108 101 328 328 28 51 36 29 62 109 115 93 88 105 103 31 309 268 298 297 305 313 225 185 207 172 121 93 90 114 122 131
343 334 327 328 328 331 333 331 331 332 330 335 326 300 286 281 237 200 189 241 185 264 311 307 104 103 137 123 93 62 71 80 102 109 84 22 301 319 2 35 43 13 42 73 93 100 91 81 133 123 110 345 22 108 111 115 142 292 359 81 90 62 43 47 84 111 111 97 98 99 59 336 309 302 301 303 211 191 191 139 107 105 93 82 83 86 91
338 332 324 324 327 329 331 330 332 333 335 345 334 309 297 281 236 210 200 196 91 294 305 329 57 103 131 112 119 132 84 57 75 114 130 182 237 57 65 28 311 23 47 70 79 74 108 134 239 85 106 118 86 102 111 132 141 147 121 115 115 115 97 75 78 122 117 90 83 125 164 204 289 275 290 337 132 162 134 102 96 102 102 96 89 87 95
334 329 323 321 325 326 326 328 332 334 335 342 331 311 298 275 232 220 216 213 73 32 322 346 12 17 52 115 164 154 138 147 166 148 147 179 114 94 144 202 211 115 109 129 114 91 137 149 165 73 103 108 45 103 130 122 60 14 76 116 108 342 126 146 193 234 121 129 145 152 134 355 305 209 150 85 98 121 120 112 103 99 103 104 99 96 103
330 327 323 319 319 322 324 328 332 330 328 332 328 308 284 265 277 236 221 219 230 265 287 334 341 339 26 39 60 78 87 152 180 157 136 123 51 116 146 158 156 171 179 128 112 130 153 132 138 121 103 90 83 97 108 119 120 332 1 54 61 30 100 111 94 61 82 105 120 117 89 54 64 91 98 92 91 97 107 111 108 105 107 109 109 109 109
328 326 324 316 313 318 324 329 329 323 325 332 328 302 273 274 324 247 204 210 231 259 294 352 14 7 22 37 54 49 36 38 61 160 140 113 79 55 130 128 137 178 144 118 139 159 143 136 148 127 109 110 107 89 60 69 125 187 24 44 79 130 111 94 95 107 93 68 66 83 81 72 75 78 82 88 90 93 103 104 103 106 110 109 114 120 122
330 327 322 313 312 319 324 327 328 323 323 328 323 301 279 290 332 169 185 199 222 214 1 15 40 122 339 2 46 52 34 30 21 290 203 151 128 91 249 208 160 112 100 163 154 128 110 125 121 94 100 122 108 106 90 75 106 127 96 75 325 311 76 82 104 136 124 79 82 89 82 86 89 84 80 84 85 85 92 100 107 112 111 112 116 120 120
331 328 319 310 312 321 325 329 330 327 328 331 325 302 279 314 358 169 183 179 82 123 90 359 336 346 357 357 48 43 34 42 54 59 105 155 148 145 171 192 106 110 151 175 107 88 83 94 98 95 106 113 97 108 119 131 154 142 116 139 217 68 82 89 92 93 87 100 115 106 90 89 92 91 93 96 94 93 91 93 103 107 105 108 112 114 115
332 329 319 310 316 324 330 333 332 335 340 339 331 314 55 34 34 127 156 106 92 95 86 342 307 354 38 60 27 29 73 85 79 77 80 90 110 122 131 116 66 79 102 86 74 92 98 90 87 89 92 88 97 106 95 103 130 107 83 184 195 113 89 104 108 99 89 100 118 114 96 86 84 91 99 101 103 105 101 96 100 104 103 102 102 105 114
330 327 318 314 320 329 332 334 340 349 357 11 83 99 73 54 52 68 89 83 85 65 68 155 283 338 31 39 26 48 96 94 81 76 76 86 103 107 105 97 75 77 78 57 51 76 84 76 71 73 88 92 87 88 84 86 98 88 62 357 19 90 103 123 123 120 124 139 142 130 110 103 106 107 104 102 105 109 107 105 105 105 109 110 101 96 103
329 326 318 315 323 332 334 339 351 2 21 87 107 92 74 54 45 48 59 67 86 128 137 156 286 334 23 18 27 64 95 89 82 80 75 79 89 92 89 88 87 80 70 65 66 61 65 83 96 80 79 95 79 58 43 58 68 63 11 316 342 126 147 157 140 129 140 148 144 127 111 116 122 116 108 108 112 110 110 116 119 120 126 126 118 111 104
329 325 318 318 325 331 335 347 2 14 41 114 119 86 72 51 36 39 59 76 83 107 118 76 1 9 6 347 21 66 89 88 82 78 73 71 74 75 75 76 77 78 86 89 89 78 71 90 119 71 26 79 105 76 31 50 60 22 315 315 49 92 115 129 118 112 120 132 134 124 118 121 125 124 120 122 123 118 116 124 131 133 135 132 127 130 131
329 325 320 322 325 327 339 358 11 18 33 120 171 43 49 41 26 28 44 78 89 94 97 89 64 8 324 331 20 52 77 84 78 70 65 66 63 61 70 74 62 53 72 75 73 84 76 40 30 21 5 37 100 104 68 86 94 4 330 25 80 88 85 80 91 104 117 126 122 113 114 117 120 117 114 119 127 126 125 136 141 139 139 136 132 133 137
330 324 320 324 325 324 344 5 16 22 31 57 115 53 74 86 13 17 36 87 95 91 90 94 88 351 358 29 23 25 56 77 76 63 56 59 56 52 62 66 51 33 64 77 64 65 71 26 23 24 3 22 75 101 93 94 97 30 353 59 88 95 89 77 77 90 103 113 111 100 97 105 111 106 100 116 130 130 130 142 148 145 142 140 139 141 146
330 323 322 328 321 319 349 10 18 29 38 52 75 88 118 96 22 25 64 98 93 94 96 82 68 37 359 339 338 357 35 65 69 50 34 41 46 45 48 52 51 46 67 89 81 38 21 28 54 50 10 15 65 92 70 72 103 146 130 99 92 93 95 93 91 90 95 109 115 108 105 115 130 131 136 142 140 138 140 145 148 145 138 133 133 142 151
329 324 325 319 300 309 1 25 35 45 49 63 84 92 80 52 34 41 79 90 83 92 105 98 88 81 268 278 335 358 22 48 45 31 27 21 23 40 33 23 30 41 42 56 83 51 13 54 67 55 4 6 65 91 69 59 103 138 122 105 101 100 99 97 99 104 111 123 124 123 134 152 158 144 140 141 142 145 148 149 147 143 137 133 135 142 152
331 329 327 273 253 324 54 58 64 64 58 63 89 89 68 47 36 47 71 84 82 71 61 76 101 70 347 7 1 354 15 58 60 41 39 8 5 56 49 4 15 44 36 31 69 71 44 51 74 66 5 353 46 82 87 92 115 116 109 107 110 109 105 105 112 122 129 123 102 106 121 125 120 121 127 131 138 144 145 147 147 140 132 139 153 156 160
337 330 269 210 192 112 89 78 74 69 54 58 93 93 57 37 39 55 66 71 74 66 20 38 100 110 36 55 57 334 7 62 78 67 82 24 9 53 85 40 27 38 30 30 62 56 35 56 103 87 11 355 35 75 138 150 136 122 117 119 120 116 116 126 135 137 130 115 102 102 110 113 116 125 133 133 137 140 141 146 149 147 150 177 191 186 185
332 306 186 171 152 126 103 82 72 57 23 27 96 92 45 35 53 68 72 68 72 100 146 47 76 114 123 111 146 295 360 56 41 348 52 59 25 33 74 72 56 32 11 46 54 34 8 49 99 73 27 43 90 150 166 150 139 137 138 142 145 141 140 147 147 137 121 110 109 115 126 130 134 139 139 142 151 148 143 142 146 150 167 188 190 209 217
346 133 157 159 143 103 66 52 49 32 358 338 136 88 41 40 59 63 59 52 48 60 98 106 116 175 158 140 188 302 21 79 40 8 30 61 45 24 47 68 70 26 10 33 40 20 359 38 76 77 39 55 146 163 163 149 146 149 149 151 158 151 140 138 134 124 116 115 121 130 139 139 140 141 142 150 158 152 152 170 182 184 192 192 185 197 207
107 113 128 136 112 64 37 3 1 7 360 25 120 61 16 27 52 37 13 19 15 7 43 97 138 216 88 99 121 309 87 118 61 40 54 110 67 38 40 62 80 70 42 20 336 45 46 29 51 77 46 349 142 158 168 161 155 154 152 156 163 150 137 138 137 129 123 127 140 145 141 141 154 169 169 167 174 179 185 194 197 196 198 193 179 176 176
109 107 88 69 73 116 159 336 346 5 45 60 67 53 11 24 52 32 329 352 18 354 25 94 151 170 104 99 74 305 78 93 66 47 47 100 94 83 78 70 56 67 72 34 302 54 65 21 10 65 74 45 167 173 178 157 144 148 155 157 156 148 144 149 152 149 150 162 168 166 164 166 173 182 186 180 184 193 197 198 200 202 201 187 170 165 165
82 81 66 53 37 309 306 18 24 41 52 33 29 50 58 38 55 159 226 29 41 348 210 130 158 183 122 115 113 359 17 87 115 126 119 107 134 126 106 100 95 75 73 358 305 70 92 71 27 85 146 201 202 186 173 153 148 157 158 152 152 153 154 159 163 161 161 166 172 173 176 177 175 175 180 181 178 184 197 204 208 208 196 175 170 174 174
41 48 54 320 318 334 7 52 54 46 53 45 22 36 81 92 304 36 80 72 64 257 256 101 101 67 39 109 120 116 343 26 126 122 105 49 40 84 87 116 126 81 85 242 253 81 87 81 63 132 209 221 207 180 167 156 152 156 156 153 153 155 157 158 157 156 155 159 171 180 182 180 177 177 181 181 177 177 186 194 198 198 186 176 178 182 179
1 12 356 313 326 351 25 43 39 32 53 74 40 12 36 202 253 30 88 130 186 225 339 95 127 155 174 132 125 137 171 326 65 85 86 64 73 98 97 50 47 76 146 229 218 63 68 89 142 228 239 226 190 171 167 163 161 164 168 165 158 154 154 151 148 151 156 160 169 180 182 179 178 179 180 178 173 171 175 181 183 185 183 181 183 184 178
360 42 50 10 7 25 32 27 30 49 54 57 71 58 334 335 4 92 243 266 247 97 97 136 137 127 101 79 90 93 72 36 61 80 88 86 15 75 68 44 51 114 194 217 59 65 94 162 193 218 221 197 177 175 174 170 164 160 170 176 169 162 159 155 150 153 160 162 165 172 175 175 174 175 175 171 166 163 167 175 177 177 177 182 187 187 180
64 56 50 36 16 30 42 8 345 108 101 82 124 137 164 241 228 156 167 223 209 148 163 158 122 112 108 69 76 74 45 52 73 78 83 61 37 61 75 83 246 223 193 65 63 97 206 217 218 208 184 163 176 183 174 165 157 147 156 177 172 161 154 149 144 144 151 157 159 163 166 166 164 164 166 166 163 161 164 168 169 170 172 176 182 183 181
107 32 37 38 3 353 95 78 332 36 168 191 175 151 163 187 199 198 199 198 155 131 133 123 110 110 112 342 57 91 108 50 59 61 97 77 52 49 128 183 168 65 79 84 82 138 236 239 220 187 167 169 182 181 167 162 159 149 143 151 159 154 149 145 143 145 149 152 152 153 156 158 156 157 163 166 165 166 170 172 173 175 175 175 178 182 186
131 92 85 93 324 295 112 116 309 289 188 196 191 172 172 182 192 202 209 170 117 125 138 132 111 105 97 17 64 94 69 65 65 49 79 90 81 69 210 153 77 60 70 97 185 220 232 224 199 177 173 176 177 170 163 160 156 147 142 146 156 156 151 148 150 153 152 150 149 151 155 157 156 157 161 164 164 167 171 174 178 182 183 183 185 189 192
105 45 89 102 311 327 86 178 220 209 193 195 193 188 190 190 189 204 217 152 136 137 129 99 91 98 94 82 95 72 21 55 78 45 37 83 98 312 359 59 100 165 154 177 220 238 239 218 188 175 174 171 165 161 161 157 151 149 149 148 150 151 149 148 150 152 150 148 149 152 156 158 158 159 160 161 163 165 167 170 177 186 190 190 190 194 198
121 86 90 111 176 199 205 228 240 229 226 226 207 196 189 158 138 225 279 143 131 130 121 104 99 89 40 37 81 86 17 43 78 64 13 90 99 28 23 39 286 244 180 177 208 227 221 196 181 173 170 167 163 160 160 159 156 153 150 146 148 151 150 148 150 152 151 150 151 154 159 161 162 162 162 162 161 163 165 168 174 183 188 189 189 192 198
94 85 109 141 171 212 221 199 156 253 281 293 255 175 157 138 168 239 251 122 119 129 135 128 119 111 58 5 68 75 35 45 95 69 22 54 92 145 129 134 236 255 232 204 213 222 207 181 166 160 162 166 162 158 158 157 153 153 154 155 156 155 152 150 152 153 153 153 156 160 162 164 164 164 165 165 165 166 168 168 168 170 175 178 181 185 193
55 65 151 153 155 270 274 111 106 287 294 300 181 188 159 132 161 232 214 130 122 107 86 80 85 92 85 52 61 58 334 252 129 104 73 102 168 155 130 164 217 228 228 226 224 209 180 160 152 155 164 168 161 156 156 153 153 159 161 159 157 156 154 153 153 154 153 154 158 161 163 164 165 168 171 172 172 173 174 173 170 169 169 169 171 178 185
13 6 274 187 174 198 216 181 190 246 254 206 188 196 170 145 172 200 177 142 111 83 85 108 103 72 65 60 81 136 217 242 90 104 167 218 175 140 153 214 226 223 224 233 223 189 163 156 154 157 162 164 160 156 154 151 154 159 161 157 156 156 154 153 153 154 154 155 158 163 169 173 176 179 180 178 175 175 179 182 183 183 182 180 179 179 179
103 321 297 276 219 195 191 193 211 226 228 219 207 189 166 169 191 185 154 128 110 110 137 154 95 81 95 157 183 152 114 62 69 118 212 230 189 161 179 209 224 217 208 210 196 165 160 165 163 161 162 163 160 155 150 148 151 155 156 154 153 152 151 152 153 154 153 154 157 162 168 175 178 180 179 176 174 178 187 193 194 195 196 192 185 180 179